Weather History for Chipley, FL

Change the Weather History Date:

Saturday, September 21, 2013

  Actual Average (KMAI) Record (KMAI)
Temperature  
Mean Temperature 78 °F 77 °F  
Max Temperature 82 °F 87 °F 99 °F (2010)
Min Temperature 73 °F 66 °F 55 °F (2006)
Degree Days  
Heating Degree Days 0    
Month to date heating degree days  
Since 1 July heating degree days  
Cooling Degree Days 12    
Month to date cooling degree days  
Year to date cooling degree days  
Growing Degree Days 28 (Base 50)    
Moisture  
Dew Point 72 °F    
Average Humidity 82    
Maximum Humidity 89    
Minimum Humidity 74    
Precipitation  
Precipitation 2.78 in 0.12 in 1.92 in (1998)
Month to date precipitation 2.68  
Year to date precipitation 41.01  
Sea Level Pressure  
Sea Level Pressure 29.78 in    
Wind  
Wind Speed 7 mph (South)    
Max Wind Speed 12 mph    
Max Gust Speed 29 mph    
Visibility 9 miles    
Events      
T = Trace of Precipitation, MM = Missing Value Source: NWS Daily Summary

Daily Weather History Graph

Daily Weather History Graph

Search for Another Location

Airport:

Trip Planner

Search our weather history database for the weather conditions in past years. The results will help you decide how hot, cold, wet, or windy it might be!

Date:

Astronomy

Sep. 21, 2013 Rise Set
Actual Time 6:30 AM CDT 6:39 PM CDT
Civil Twilight 6:06 AM CDT 7:04 PM CDT
Nautical Twilight 5:38 AM CDT 7:32 PM CDT
Astronomical Twilight 5:09 AM CDT 8:00 PM CDT
Moon 8:03 PM CDT (9/21) 8:35 AM CDT (9/21)
Length of Visible Light 12h 57m
Length of Day
12h 09m
Waning Gibbous, 94% of the Moon is Illuminated
Sep 21
Waning Gibbous
Sep 26
Last Quarter
Oct 4
New
Oct 11
First Quarter
Oct 18
Full

Hourly Weather History & Observations

Time (CDT) Temp. Heat Index Dew Point Humidity Pressure Visibility Wind Dir Wind Speed Gust Speed Precip Events Conditions
12:15 AM 82.4 °F 88.2 °F 73.4 °F 74% 29.83 in 10.0 mi South 9.2 mph - N/A   Clear
12:35 AM 82.4 °F 88.2 °F 73.4 °F 74% 29.82 in 10.0 mi South 11.5 mph - N/A   Clear
12:55 AM 82.4 °F 88.2 °F 73.4 °F 74% 29.82 in 10.0 mi South 9.2 mph - N/A   Clear
1:15 AM 82.4 °F 88.2 °F 73.4 °F 74% 29.82 in 10.0 mi South 8.1 mph - N/A   Clear
1:35 AM 82.4 °F 88.2 °F 73.4 °F 74% 29.81 in 10.0 mi South 9.2 mph - N/A   Clear
1:55 AM 82.4 °F 88.2 °F 73.4 °F 74% 29.81 in 10.0 mi South 8.1 mph - N/A   Scattered Clouds
2:15 AM 82.4 °F 88.2 °F 73.4 °F 74% 29.80 in 10.0 mi South 8.1 mph - N/A   Mostly Cloudy
2:35 AM 82.4 °F 88.2 °F 73.4 °F 74% 29.80 in 10.0 mi South 8.1 mph - N/A   Mostly Cloudy
2:55 AM 82.4 °F 88.2 °F 73.4 °F 74% 29.79 in 10.0 mi South 9.2 mph - N/A   Partly Cloudy
3:15 AM 82.4 °F 88.2 °F 73.4 °F 74% 29.78 in 10.0 mi South 8.1 mph - N/A   Clear
3:35 AM 82.4 °F 88.2 °F 73.4 °F 74% 29.78 in 10.0 mi South 8.1 mph - N/A   Clear
3:55 AM 82.4 °F 88.2 °F 73.4 °F 74% 29.78 in 10.0 mi South 9.2 mph - N/A   Clear
4:15 AM 82.4 °F 88.2 °F 73.4 °F 74% 29.78 in 10.0 mi South 6.9 mph - N/A   Clear
4:35 AM 82.4 °F 88.2 °F 73.4 °F 74% 29.78 in 10.0 mi South 8.1 mph - N/A   Clear
4:55 AM 82.4 °F 88.2 °F 73.4 °F 74% 29.78 in 10.0 mi South 8.1 mph - N/A   Scattered Clouds
5:15 AM 80.6 °F 85.4 °F 73.4 °F 79% 29.78 in 6.0 mi SW 5.8 mph - 0.08 in   Overcast
5:35 AM 80.6 °F 85.4 °F 73.4 °F 79% 29.78 in 5.0 mi South 8.1 mph - 0.20 in   Mostly Cloudy
5:55 AM 78.8 °F - 73.4 °F 83% 29.77 in 10.0 mi South 5.8 mph - 0.21 in   Overcast
6:15 AM 80.6 °F 85.4 °F 73.4 °F 79% 29.79 in 10.0 mi South 5.8 mph - 0.02 in   Overcast
6:35 AM 80.6 °F 85.4 °F 73.4 °F 79% 29.81 in 10.0 mi SSW 11.5 mph 28.8 mph 0.04 in   Overcast
6:55 AM 75.2 °F - 71.6 °F 89% 29.80 in 3.0 mi South 5.8 mph - 0.24 in   Overcast
7:15 AM 75.2 °F - 71.6 °F 89% 29.80 in 9.0 mi SSW 3.5 mph - 0.04 in   Mostly Cloudy
7:35 AM 77.0 °F - 71.6 °F 83% 29.80 in 9.0 mi South 5.8 mph - 0.08 in   Overcast
7:55 AM 77.0 °F - 71.6 °F 83% 29.81 in 5.0 mi SSE 8.1 mph - 0.13 in   Mostly Cloudy
8:15 AM 75.2 °F - 71.6 °F 89% 29.81 in 5.0 mi SSE 6.9 mph - 0.07 in   Overcast
8:35 AM 75.2 °F - 71.6 °F 89% 29.82 in 4.0 mi SSE 5.8 mph - 0.17 in   Overcast
8:55 AM 75.2 °F - 71.6 °F 89% 29.84 in 1.0 mi West 5.8 mph - 0.80 in   Overcast
9:15 AM 75.2 °F - 71.6 °F 89% 29.82 in 5.0 mi SE 4.6 mph - 0.11 in   Overcast
9:35 AM 75.2 °F - 69.8 °F 83% 29.82 in 4.0 mi South 5.8 mph - 0.17 in   Mostly Cloudy
9:55 AM 75.2 °F - 71.6 °F 89% 29.82 in 7.0 mi South 6.9 mph - 0.25 in   Overcast
10:15 AM 75.2 °F - 71.6 °F 89% 29.82 in 10.0 mi South 4.6 mph - 0.03 in   Overcast
10:35 AM 75.2 °F - 71.6 °F 89% 29.81 in 10.0 mi South 4.6 mph - 0.05 in   Overcast
10:55 AM 75.2 °F - 71.6 °F 89% 29.80 in 10.0 mi South 5.8 mph - 0.06 in   Overcast
11:15 AM 75.2 °F - 71.6 °F 89% 29.80 in 10.0 mi SSE 4.6 mph - 0.01 in   Overcast
11:35 AM 75.2 °F - 71.6 °F 89% 29.80 in 10.0 mi South 6.9 mph - 0.02 in   Overcast
11:55 AM 77.0 °F - 71.6 °F 83% 29.80 in 10.0 mi South 6.9 mph - 0.03 in   Overcast
12:15 PM 77.0 °F - 71.6 °F 83% 29.81 in 10.0 mi SSW 5.8 mph - 0.02 in   Overcast
12:35 PM 75.2 °F - 71.6 °F 89% 29.80 in 10.0 mi SSW 3.5 mph - 0.04 in   Mostly Cloudy
12:55 PM 77.0 °F - 71.6 °F 83% 29.80 in 10.0 mi SW 3.5 mph - 0.05 in   Mostly Cloudy
1:15 PM 77.0 °F - 71.6 °F 83% 29.79 in 10.0 mi South 5.8 mph - 0.01 in   Overcast
1:35 PM 77.0 °F - 71.6 °F 83% 29.78 in 10.0 mi SSW 4.6 mph - 0.01 in   Overcast
1:55 PM 78.8 °F - 73.4 °F 83% 29.77 in 10.0 mi South 3.5 mph - 0.01 in   Mostly Cloudy
2:15 PM 78.8 °F - 73.4 °F 83% 29.77 in 10.0 mi South 6.9 mph - N/A   Mostly Cloudy
2:35 PM 78.8 °F - 73.4 °F 83% 29.77 in 10.0 mi South 5.8 mph - N/A   Overcast
2:55 PM 78.8 °F - 73.4 °F 83% 29.76 in 10.0 mi South 3.5 mph - 0.01 in   Overcast
3:15 PM 78.8 °F - 73.4 °F 83% 29.75 in 10.0 mi South 8.1 mph - N/A   Overcast
3:35 PM 78.8 °F - 73.4 °F 83% 29.74 in 10.0 mi South 8.1 mph - N/A   Overcast
3:55 PM 78.8 °F - 71.6 °F 78% 29.73 in 10.0 mi South 6.9 mph - N/A   Overcast
4:15 PM 77.0 °F - 71.6 °F 83% 29.73 in 10.0 mi WSW 3.5 mph - N/A   Overcast
4:35 PM 77.0 °F - 71.6 °F 83% 29.72 in 10.0 mi Calm Calm - N/A   Overcast
4:55 PM 78.8 °F - 71.6 °F 78% 29.73 in 10.0 mi WSW 4.6 mph - N/A   Mostly Cloudy
5:15 PM 78.8 °F - 71.6 °F 78% 29.73 in 10.0 mi West 3.5 mph - N/A   Mostly Cloudy
5:35 PM 78.8 °F - 71.6 °F 78% 29.73 in 10.0 mi Calm Calm - N/A   Overcast
5:55 PM 78.8 °F - 71.6 °F 78% 29.73 in 10.0 mi SSW 4.6 mph - N/A   Partly Cloudy
6:15 PM 78.8 °F - 71.6 °F 78% 29.73 in 10.0 mi Calm Calm - N/A   Mostly Cloudy
6:35 PM 78.8 °F - 71.6 °F 78% 29.74 in 10.0 mi SSW 3.5 mph - N/A   Overcast
6:55 PM 78.8 °F - 71.6 °F 78% 29.74 in 10.0 mi Calm Calm - N/A   Overcast
7:15 PM 78.8 °F - 71.6 °F 78% 29.74 in 10.0 mi South 3.5 mph - N/A   Mostly Cloudy
7:35 PM 78.8 °F - 71.6 °F 78% 29.74 in 10.0 mi Calm Calm - N/A   Mostly Cloudy
7:55 PM 78.8 °F - 71.6 °F 78% 29.74 in 10.0 mi South 3.5 mph - N/A   Overcast
8:15 PM 78.8 °F - 71.6 °F 78% 29.75 in 10.0 mi SSE 3.5 mph - N/A   Overcast
8:35 PM 77.0 °F - 71.6 °F 83% 29.75 in 10.0 mi South 3.5 mph - 0.02 in   Mostly Cloudy
8:55 PM 77.0 °F - 71.6 °F 83% 29.76 in 10.0 mi SE 4.6 mph - 0.02 in   Overcast
9:15 PM 77.0 °F - 71.6 °F 83% 29.75 in 10.0 mi SE 4.6 mph - N/A   Overcast
9:35 PM 77.0 °F - 71.6 °F 83% 29.76 in 10.0 mi SSE 4.6 mph - N/A   Mostly Cloudy
9:55 PM 77.0 °F - 71.6 °F 83% 29.76 in 6.0 mi Calm Calm - 0.01 in   Mostly Cloudy
10:15 PM 75.2 °F - 71.6 °F 89% 29.76 in 7.0 mi NW 3.5 mph - 0.02 in   Overcast
10:35 PM 75.2 °F - 71.6 °F 89% 29.77 in 4.0 mi West 3.5 mph - 0.12 in   Overcast
10:55 PM 73.4 °F - 69.8 °F 88% 29.77 in 5.0 mi North 4.6 mph - 0.22 in   Overcast
11:15 PM 73.4 °F - 69.8 °F 88% 29.77 in 3.0 mi NNE 9.2 mph - 0.34 in   Overcast
11:35 PM 73.4 °F - 69.8 °F 88% 29.77 in 3.0 mi NE 5.8 mph - 0.71 in   Overcast
11:55 PM 73.4 °F - 69.8 °F 88% 29.77 in 10.0 mi NNE 4.6 mph - 0.74 in   Overcast